User: anonymous   Login
Location: Elk Horn Observatory
(36.6768°N, 80.8309°W)
Time: 15:06:29
(UTC-04:00)
Language:

Envisat - Orbit

View from above orbital plane
View from above orbital plane
View from above satellite
View from above satellite

Ground track
Ground track

The orbit data is extracted from the following two-line orbital elements,

1 27386U 02009A   19146.51906772  .00000000  00000-0  13631-4 0  9993
2 27386  98.1506 168.7288 0001290  88.3801  85.4871 14.37949221902867
Epoch (UTC): 26 May 2019 12:27:27
Eccentricity: 0.0001290
inclination: 98.1506°
perigee height: 764 km
apogee height: 766 km
right ascension of ascending node: 168.7288°
argument of perigee: 88.3801°
revolutions per day: 14.37949221
mean anomaly at epoch: 85.4871°
orbit number at epoch: 90286

The dashed part of the orbit path shows where the satellite is in the earth's shadow,  

DLR